Weather History for Sherman-Denison, TX

Change the Weather History Date:

Sunday, August 25, 2013

  Actual Average (KDFW) Record (KDFW)
Temperature  
Mean Temperature 86 °F 85 °F  
Max Temperature 98 °F 95 °F 106 °F (1952)
Min Temperature 73 °F 74 °F 61 °F (1926)
Degree Days  
Heating Degree Days 0 0  
Month to date heating degree days 0  
Since 1 June heating degree days 0  
Since 1 July heating degree days 0  
Cooling Degree Days 20 20  
Month to date cooling degree days 520  
Year to date cooling degree days 2064  
Since 1 June cooling degree days 1642  
Growing Degree Days 36 (Base 50)    
Moisture  
Dew Point 65 °F    
Average Humidity 51    
Maximum Humidity 81    
Minimum Humidity 28    
Precipitation  
Precipitation 0.00 in 0.07 in 1.37 in (1971)
Month to date precipitation 1.43  
Year to date precipitation 23.63  
Sea Level Pressure  
Sea Level Pressure 30.13 in    
Wind  
Wind Speed 7 mph (ESE)    
Max Wind Speed 15 mph    
Max Gust Speed 22 mph    
Visibility 10 miles    
Events      
T = Trace of Precipitation, MM = Missing Value Source: NWS Daily Summary

Daily Weather History Graph

Daily Weather History Graph

Search for Another Location

Airport:

Trip Planner

Search our weather history database for the weather conditions in past years. The results will help you decide how hot, cold, wet, or windy it might be!

Date:

Astronomy

Aug. 25, 2013 Rise Set
Actual Time 6:55 AM CDT 8:00 PM CDT
Civil Twilight 6:30 AM CDT 8:26 PM CDT
Nautical Twilight 5:59 AM CDT 8:57 PM CDT
Astronomical Twilight 5:27 AM CDT 9:28 PM CDT
Moon 10:51 PM CDT (8/25) 11:41 AM CDT (8/25)
Length of Visible Light 13h 56m
Length of Day
13h 04m
Waning Gibbous, 75% of the Moon is Illuminated
Aug 25
Waning Gibbous
Aug 28
Last Quarter
Sep 5
New
Sep 12
First Quarter
Sep 19
Full

Hourly Weather History & Observations

Time (CDT) Temp. Heat Index Dew Point Humidity Pressure Visibility Wind Dir Wind Speed Gust Speed Precip Events Conditions
12:15 AM 81.7 °F 83.6 °F 65.5 °F 58% 30.09 in 10.0 mi East 4.6 mph - N/A   Clear
12:35 AM 81.0 °F 82.9 °F 65.5 °F 59% 30.09 in 10.0 mi East 8.1 mph - N/A   Clear
12:55 AM 81.0 °F 83.0 °F 65.7 °F 60% 30.09 in 10.0 mi East 8.1 mph - N/A   Clear
1:15 AM 80.6 °F 82.7 °F 65.8 °F 61% 30.10 in 10.0 mi East 5.8 mph - N/A   Clear
1:35 AM 79.9 °F - 66.0 °F 62% 30.09 in 10.0 mi East 4.6 mph - N/A   Clear
1:55 AM 79.7 °F - 66.2 °F 63% 30.10 in 10.0 mi East 5.8 mph - N/A   Clear
2:15 AM 78.8 °F - 66.2 °F 65% 30.10 in 10.0 mi East 4.6 mph - N/A   Clear
2:35 AM 78.4 °F - 66.2 °F 66% 30.10 in 10.0 mi East 5.8 mph - N/A   Clear
2:55 AM 78.3 °F - 66.4 °F 67% 30.11 in 10.0 mi East 6.9 mph - N/A   Clear
3:15 AM 78.4 °F - 66.7 °F 67% 30.11 in 10.0 mi East 6.9 mph - N/A   Clear
3:35 AM 78.1 °F - 67.1 °F 69% 30.11 in 10.0 mi ESE 8.1 mph - N/A   Clear
3:55 AM 78.3 °F - 67.5 °F 69% 30.12 in 10.0 mi East 6.9 mph - N/A   Clear
4:15 AM 78.1 °F - 67.5 °F 70% 30.12 in 10.0 mi ESE 6.9 mph - N/A   Clear
4:35 AM 77.9 °F - 67.6 °F 71% 30.12 in 10.0 mi East 6.9 mph - N/A   Clear
4:55 AM 77.0 °F - 67.6 °F 73% 30.12 in 10.0 mi East 6.9 mph - N/A   Clear
5:15 AM 76.3 °F - 67.6 °F 74% 30.13 in 10.0 mi East 5.8 mph - N/A   Clear
5:35 AM 76.1 °F - 68.0 °F 76% 30.14 in 10.0 mi East 5.8 mph - N/A   Clear
5:55 AM 75.7 °F - 67.8 °F 76% 30.15 in 10.0 mi Calm Calm - N/A   Clear
6:15 AM 74.1 °F - 67.6 °F 80% 30.16 in 10.0 mi Calm Calm - N/A   Clear
6:35 AM 73.9 °F - 67.6 °F 81% 30.16 in 10.0 mi East 5.8 mph - N/A   Clear
6:55 AM 74.3 °F - 68.0 °F 81% 30.17 in 10.0 mi East 5.8 mph - N/A   Clear
7:15 AM 74.3 °F - 68.0 °F 81% 30.17 in 10.0 mi East 5.8 mph - N/A   Clear
7:35 AM 74.5 °F - 68.2 °F 81% 30.17 in 10.0 mi East 5.8 mph - N/A   Clear
7:55 AM 76.1 °F - 68.5 °F 77% 30.17 in 10.0 mi East 5.8 mph - N/A   Clear
8:15 AM 77.2 °F - 68.9 °F 76% 30.18 in 10.0 mi East 5.8 mph - N/A   Clear
8:35 AM 79.0 °F - 69.1 °F 72% 30.18 in 10.0 mi East 5.8 mph - N/A   Clear
8:55 AM 81.1 °F 84.2 °F 68.9 °F 66% 30.18 in 10.0 mi ESE 8.1 mph - N/A   Clear
9:15 AM 82.4 °F 85.6 °F 68.7 °F 63% 30.17 in 10.0 mi ESE 6.9 mph - N/A   Clear
9:35 AM 83.8 °F 87.3 °F 68.5 °F 60% 30.18 in 10.0 mi ESE 5.8 mph - N/A   Clear
9:55 AM 86.0 °F 89.4 °F 68.4 °F 55% 30.18 in 10.0 mi ESE 5.8 mph - N/A   Clear
10:15 AM 86.7 °F 90.3 °F 68.2 °F 54% 30.18 in 10.0 mi South 3.5 mph - N/A   Clear
10:35 AM 88.5 °F 92.3 °F 68.2 °F 51% 30.19 in 10.0 mi SE 5.8 mph - N/A   Clear
10:55 AM 89.1 °F 92.5 °F 67.8 °F 49% 30.19 in 10.0 mi ESE 6.9 mph - N/A   Clear
11:15 AM 90.5 °F 93.8 °F 67.1 °F 46% 30.18 in 10.0 mi SE 5.8 mph - N/A   Clear
11:35 AM 91.4 °F 94.9 °F 67.1 °F 45% 30.18 in 10.0 mi SE 4.6 mph - N/A   Clear
11:55 AM 92.7 °F 95.8 °F 66.6 °F 42% 30.17 in 10.0 mi East 12.7 mph 17.3 mph N/A   Clear
12:15 PM 92.8 °F 95.6 °F 66.0 °F 41% 30.17 in 10.0 mi ENE 6.9 mph 16.1 mph N/A   Clear
12:35 PM 93.4 °F 96.1 °F 65.8 °F 40% 30.16 in 10.0 mi ESE 4.6 mph 16.1 mph N/A   Clear
12:55 PM 94.1 °F 95.9 °F 64.0 °F 37% 30.15 in 10.0 mi ESE 6.9 mph - N/A   Clear
1:15 PM 95.2 °F 96.8 °F 63.7 °F 35% 30.15 in 10.0 mi SE 9.2 mph - N/A   Scattered Clouds
1:35 PM 95.9 °F 98.0 °F 63.9 °F 35% 30.14 in 10.0 mi East 8.1 mph - N/A   Scattered Clouds
1:55 PM 96.4 °F 98.4 °F 63.9 °F 34% 30.13 in 10.0 mi East 10.4 mph - N/A   Scattered Clouds
2:15 PM 96.4 °F 98.4 °F 63.5 °F 34% 30.13 in 10.0 mi East 9.2 mph - N/A   Scattered Clouds
2:35 PM 96.1 °F 97.8 °F 63.1 °F 34% 30.13 in 10.0 mi ESE 6.9 mph 18.4 mph N/A   Scattered Clouds
2:55 PM 95.2 °F 96.3 °F 62.4 °F 34% 30.12 in 10.0 mi ESE 11.5 mph 18.4 mph N/A   Scattered Clouds
3:15 PM 97.7 °F 99.0 °F 62.2 °F 31% 30.12 in 10.0 mi East 15.0 mph 18.4 mph N/A   Scattered Clouds
3:35 PM 97.0 °F 97.8 °F 61.7 °F 31% 30.11 in 10.0 mi ESE 11.5 mph - N/A   Scattered Clouds
3:55 PM 97.7 °F 99.0 °F 62.6 °F 31% 30.10 in 10.0 mi East 10.4 mph 16.1 mph N/A   Scattered Clouds
4:15 PM 96.1 °F 96.9 °F 61.5 °F 32% 30.10 in 10.0 mi East 10.4 mph 16.1 mph N/A   Scattered Clouds
4:35 PM 97.7 °F 98.0 °F 60.8 °F 29% 30.10 in 10.0 mi East 13.8 mph 17.3 mph N/A   Scattered Clouds
4:55 PM 97.5 °F 97.7 °F 60.1 °F 29% 30.10 in 10.0 mi SE 8.1 mph - N/A   Scattered Clouds
5:15 PM 97.9 °F 97.8 °F 59.2 °F 28% 30.09 in 10.0 mi ESE 11.5 mph 21.9 mph N/A   Scattered Clouds
5:35 PM 98.2 °F 98.4 °F 59.5 °F 28% 30.09 in 10.0 mi East 13.8 mph 19.6 mph N/A   Clear
5:55 PM 97.3 °F 97.0 °F 59.5 °F 28% 30.09 in 10.0 mi ESE 11.5 mph 18.4 mph N/A   Clear
6:15 PM 96.8 °F 96.7 °F 59.7 °F 29% 30.08 in 10.0 mi East 12.7 mph 17.3 mph N/A   Scattered Clouds
6:35 PM 96.1 °F 96.0 °F 59.9 °F 30% 30.08 in 10.0 mi ESE 11.5 mph - N/A   Clear
6:55 PM 95.0 °F 94.8 °F 60.1 °F 31% 30.08 in 10.0 mi ESE 11.5 mph - N/A   Clear
7:15 PM 94.3 °F 94.1 °F 60.4 °F 32% 30.08 in 10.0 mi ESE 11.5 mph - N/A   Clear
7:35 PM 93.2 °F 93.3 °F 60.8 °F 34% 30.08 in 10.0 mi ESE 9.2 mph - N/A   Clear
7:55 PM 91.9 °F 91.8 °F 60.8 °F 35% 30.09 in 10.0 mi ESE 8.1 mph - N/A   Clear
8:15 PM 90.9 °F 90.9 °F 61.0 °F 37% 30.09 in 10.0 mi ESE 8.1 mph - N/A   Clear
8:35 PM 90.0 °F 90.0 °F 61.0 °F 38% 30.10 in 10.0 mi ESE 6.9 mph - N/A   Clear
8:55 PM 89.1 °F 89.0 °F 61.3 °F 39% 30.10 in 10.0 mi ESE 6.9 mph - N/A   Clear
9:15 PM 88.2 °F 88.4 °F 61.7 °F 41% 30.11 in 10.0 mi ESE 6.9 mph - N/A   Clear
9:35 PM 87.4 °F 87.7 °F 61.9 °F 42% 30.12 in 10.0 mi ESE 6.9 mph - N/A   Clear
9:55 PM 86.5 °F 87.0 °F 62.2 °F 44% 30.13 in 10.0 mi ESE 5.8 mph - N/A   Clear
10:15 PM 85.5 °F 86.1 °F 62.6 °F 46% 30.14 in 10.0 mi East 5.8 mph - N/A   Clear
10:35 PM 84.9 °F 85.6 °F 62.8 °F 47% 30.15 in 10.0 mi East 5.8 mph - N/A   Clear
10:55 PM 83.8 °F 84.9 °F 63.1 °F 50% 30.16 in 10.0 mi East 6.9 mph - N/A   Clear
11:15 PM 83.8 °F 84.9 °F 63.1 °F 50% 30.16 in 10.0 mi ESE 6.9 mph - N/A   Clear
11:35 PM 84.4 °F 85.4 °F 63.5 °F 49% 30.16 in 10.0 mi ESE 9.2 mph - N/A   Clear
11:55 PM 84.2 °F 85.4 °F 63.5 °F 50% 30.16 in 10.0 mi ESE 10.4 mph - N/A   Clear